Location: Aalen
(48.8330°N, 10.1000°E)
Time: 13:52:10
(UTC+02:00)

Vanguard 2 Rocket - All Passes

Search period start: 02 August 2021 00:00
Search period end: 12 August 2021 00:00
Orbit: 555 x 3325 km, 32.9° (Epoch: 01 August)

Date Brightness Start Highest point End Pass type
(mag) Time Alt. Az. Time Alt. Az. Time Alt. Az.
02 Aug - 11:21:49 10° S 11:22:05 10° S 11:22:22 10° S daylight
08 Aug - 07:37:45 10° SSW 07:39:02 11° S 07:40:13 10° SSE daylight
09 Aug - 06:37:37 10° SSW 06:39:49 12° S 06:41:45 10° SSE daylight
10 Aug - 05:37:35 10° SSW 05:40:30 13° S 05:42:58 10° SSE daylight
10 Aug - 07:50:42 10° SSW 07:52:35 12° S 07:54:19 10° SSE daylight
11 Aug - 04:37:39 10° SSW 04:41:02 13° S 04:43:52 10° SE visible
11 Aug - 06:50:07 10° SW 06:53:26 15° S 06:56:10 10° SSE daylight
